Location: Chmeli�t?
(49.8978°N, 15.0526°E)
Time: 21:37:37
(UTC+00:00)

Cosmos 2074 Rocket - Visible Passes

Search period start: 01 October 2020 00:00
Search period end: 11 October 2020 00:00
Orbit: 968 x 985 km, 82.9° (Epoch: 01 October)

Date Brightness Start Highest point End Pass type
(mag) Time Alt. Az. Time Alt. Az. Time Alt. Az.
01 Oct 5.8 20:55:35 10° N 20:58:09 22° NNE 20:58:09 22° NNE visible
01 Oct 6.1 22:40:50 10° NNW 22:42:50 21° NNW 22:42:50 21° NNW visible
02 Oct 6.2 19:38:24 10° NE 19:38:58 11° NE 19:38:58 11° NE visible
02 Oct 5.8 21:21:05 10° N 21:23:39 25° N 21:23:39 25° N visible
02 Oct 6.3 23:06:59 10° NNW 23:08:19 16° NW 23:08:19 16° NW visible
03 Oct 6.0 20:02:27 10° NNE 20:04:27 16° NE 20:04:27 16° NE visible
03 Oct 5.9 21:46:46 10° N 21:49:08 25° N 21:49:08 25° N visible
03 Oct 6.6 23:33:35 10° NW 23:33:49 11° NW 23:33:49 11° NW visible
04 Oct 5.8 20:27:33 10° N 20:29:57 20° NNE 20:29:57 20° NNE visible
04 Oct 6.1 22:12:37 10° NNW 22:14:38 21° NNW 22:14:38 21° NNW visible
05 Oct 5.8 20:52:59 10° N 20:55:28 24° NNE 20:55:28 24° NNE visible
05 Oct 6.3 22:38:44 10° NNW 22:40:09 17° NNW 22:40:09 17° NNW visible
06 Oct 6.0 19:34:33 10° NNE 19:36:18 14° NE 19:36:18 14° NE visible
06 Oct 5.8 21:18:37 10° N 21:20:59 24° N 21:20:59 24° N visible
06 Oct 6.6 23:05:12 10° NW 23:05:40 12° NW 23:05:40 12° NW visible
07 Oct 5.8 19:59:31 10° N 20:01:49 19° NNE 20:01:49 19° NNE visible
07 Oct 6.0 21:44:27 10° NNW 21:46:30 22° NNW 21:46:30 22° NNW visible
08 Oct 5.7 20:24:54 10° N 20:27:21 23° NNE 20:27:21 23° NNE visible
08 Oct 6.3 22:10:29 10° NNW 22:12:02 18° NNW 22:12:02 18° NNW visible
09 Oct 6.0 19:06:42 10° NNE 19:08:13 13° NE 19:08:13 13° NE visible
09 Oct 5.8 20:50:30 10° N 20:52:53 25° N 20:52:53 25° N visible
09 Oct 6.5 22:36:50 10° NNW 22:37:34 13° NW 22:37:34 13° NW visible
10 Oct 5.8 19:31:31 10° N 19:33:45 18° NNE 19:33:45 18° NNE visible
10 Oct 6.0 21:16:17 10° NNW 21:18:26 23° NNW 21:18:26 23° NNW visible
